STARLINK-32520, 62021

Orbit data source: Space-Track

STARLINK-32520, 62021 is a payload satellite owned by SpaceX/Seattle (US) in LEO that was launched on Mon, 18 Nov 2024 UTC via an FALCON 9 launch vehicle from the Air Force Western Test Range (AFWTR). Payload-class satellites include a variety of spacecraft equipped with specific instruments for various scientific and technological missions. These include communications satellites like Starlink; space stations such as the ISS; scientific satellites like the Hubble; Earth observation satellites from companies like Planet Labs, Umbra, and HawkEye 360; GPS; miniature CubeSats for education and research; and military/defense satellites.

Loading next visibility...
Identifier
62021, 2024-213P
Orbit
LEO
Last TLE update
7 hours ago
Origin
Manufacturer
SpaceX/Seattle
Mission
Operational Commercial Communications
Bus & Motor
STARLINK V2M, Unknown motor
Mass
730 kg wet, ~700 kg dry
Launch date (UTC)
2024-11-18 (7 months ago)
Launch vehicle
FALCON 9
Launch site
Air Force Western Test Range (AFWTR)
Object type
Payload
Rocket body
Debris
Shape & HBR
Box + 2 Pan, 29 m
Radar Cross Section
36.964 m², Large (>1 m²)

Expand to show TLE details & history

TLE from 7 hours ago
0 STARLINK-32520
1 62021U 24213P   25181.72669816  .00004470  00000-0  16296-3 0  9997
2 62021  53.1576 258.7883 0001040  98.4416 261.6703 15.30199229 35787
Epoch: 2025-06-30T17:26Z
TLE epoch observation values (Epoch: 2025-06-30T17:26:26.721Z)
Latitude
0.00003°
Longitude
78.14462°
Altitude
476.22 km
Speed
7.629 km/s
True Right ascension
17h 15m 09s
True Declination
0° 00' 00"
Sunlit
Object was in full shadow at epoch
Visualization orbit readout
Latitude
45.55617°
Longitude
-152.60717°
Altitude
479.34 km
Speed
7.632 km/s
Apparent Right ascension
00h 50m 29s
Apparent Declination
4° 53' 45"
Sunlit
Object is in daylight
Visualization observer readout
Local Sidereal Time
11:49:59
Azimuth
339.152° N
Elevation
-43.075°
Doppler factor
1
Orbital elements
Apogee altitude
476.187 km
Perigee altitude
474.761 km
Semi-major axis
6,853.611 km
Eccentricity
0.0001
Inclination
53.1576°
RAAN
258.7883°
Arg. of periapsis
98.4416°
True anomaly
Unknown
Mean anomaly
261.6703°
Eccentric anomaly
Unknown
Mean motion
3.82529 °/min
Orbital period
94.11 mins
BSTAR
0.00016296
Loading maneuver chart data...
Loading SW <> Apogee altitude chart data...
Loading historical data...
Loading historical data...
Loading historical data...
Loading historical data...
Loading historical data...
Loading historical data...
Loading historical data...

STARLINK-32520 Visibility forecast

Observer location: undefined°, undefined°

Span
Click to sort rows by Start time (UTC) header in descending order
Start Az.
Max El. time (UTC)
Max El. Az.
Max El.
End time (UTC)
End Az.
6 mins2025-07-01 07:43:13.714Z217.584° SW2025-07-01 07:46:13.714Z140.025° SSE42.289°2025-07-01 07:49:13.714Z56.755° ENE
4 mins2025-07-01 09:23:13.714Z306.894° NW2025-07-01 09:24:13.714Z329.478° NNW20.034°2025-07-01 09:27:13.714Z25.915° NE
5 mins2025-07-01 14:19:13.714Z325.867° NNW2025-07-01 14:21:13.714Z32.299° NE39.312°2025-07-01 14:24:13.714Z112.987° SE
|